This is the latest recevied weather packets stored in our database for station/object PA3GJX-13. If no packets are shown the sender has not sent any weather packets the latest 10 day(s).
| Time | Temp. | Humidity | Pressure | Rain* | Wind** | Luminosity | Snow |
|---|---|---|---|---|---|---|---|
| 1777293321 | 21.67° C | 29% | 1038.4 hPa | - | - | - | - |
| 1777292121 | 21.67° C | 29% | 1038.4 hPa | - | - | - | - |
| 1777290921 | 21.11° C | 31% | 1038.5 hPa | - | - | - | - |
| 1777289721 | 21.11° C | 31% | 1038.5 hPa | - | - | - | - |
| 1777288521 | 20° C | 32% | 1038.5 hPa | - | - | - | - |
| 1777287321 | 20° C | 32% | 1038.7 hPa | - | - | - | - |
| 1777286121 | 19.44° C | 32% | 1038.7 hPa | - | - | - | - |
| 1777284921 | 18.89° C | 33% | 1038.8 hPa | - | - | - | - |
| 1777283721 | 18.33° C | 34% | 1039 hPa | - | - | - | - |
| 1777282521 | 17.78° C | 35% | 1039.1 hPa | - | - | - | - |
| 1777281321 | 17.22° C | 36% | 1039.3 hPa | - | - | - | - |
| 1777280120 | 17.22° C | 35% | 1039.4 hPa | - | - | - | - |
| 1777278920 | 16.67° C | 36% | 1039.5 hPa | - | - | - | - |
| 1777277720 | 16.11° C | 36% | 1039.6 hPa | - | - | - | - |
| 1777276520 | 15.56° C | 37% | 1039.7 hPa | - | - | - | - |
| 1777275320 | 15.56° C | 37% | 1039.8 hPa | - | - | - | - |
| 1777274120 | 15.56° C | 37% | 1039.9 hPa | - | - | - | - |
| 1777272920 | 15° C | 37% | 1040.1 hPa | - | - | - | - |
| 1777270520 | 15° C | 37% | 1040.2 hPa | - | - | - | - |
| 1777269320 | 15° C | 36% | 1039.9 hPa | - | - | - | - |
| 1777268120 | 15° C | 37% | 1040.1 hPa | - | - | - | - |
| 1777266920 | 15° C | 37% | 1039.8 hPa | - | - | - | - |
| 1777265720 | 15.56° C | 37% | 1039.5 hPa | - | - | - | - |
| 1777264520 | 15.56° C | 37% | 1039.4 hPa | - | - | - | - |
| 1777263320 | 15.56° C | 36% | 1039.3 hPa | - | - | - | - |
* Rain since midnight (hover to see other rain measurements)
** Current wind speed in m/s (hover to see current wind gust speed)